Location: Couloutre
(47.4081°N, 3.2259°E)
Time: 17:43:13
(UTC+00:00)

Timation 2 Rocket - Pass Details

Date: 27 February 2020
Orbit: 904 x 1078 km, 70.0° (Epoch: 31 March)

Event Time Altitude Azimuth Distance (km) Brightness Sun altitude
Rises 18:36:06 0° 331° (NNW) 3,865 7.6 -12.2°
Reaches altitude 10° 18:38:44 10° 332° (NNW) 2,917 6.9 -12.7°
Maximum altitude 18:45:40 80° 60° (ENE) 1,098 4.2 -13.9°
Drops below altitude 10° 18:52:32 10° 148° (SSE) 2,891 6.1 -15.0°
Sets 18:55:08 0° 150° (SSE) 3,829 6.8 -15.5°
